www.pogodaiklimat.ru

Погода и климат >> Архив погоды >> Колумбия >> Монтерия


ПОГОДА в Монтерии

  • Прогноз погоды в Монтерии
  • Монитор погоды в Монтерии

АРХИВ ПОГОДЫ в Монтерии

Время (UTC), дата Ветер
(напр.,м/с)
 
Видим.   Явления Облачность Т
(С)
Тd
(С)
f
(%)
Тe
(С)
Тes
(С)
Комфортность P
(гПа)
Po
(гПа)
Тmin
(С)
Tmax
(С)
R
(мм)
R24
(мм)
S
(см)
12 15.05 штиль 0 12 км мгла 8/6 600 м
[Sc diur, vesp As trans]
+27.0 +25.4 91 +39 +40 очень
душно
1011.4 1010.0 +24.8
15 15.05 ЮЗ 3 16 км мгла 6/1 450 м
[Sc diur, vesp Ac trans Ci fib]
+28.6 +23.4 73 +39 +47 очень
душно
1011.4 1010.0
18 15.05 В 3 16 км мгла 10/8 300 м
[Frnb As op]
+26.2 +25.4 95 +38 +39 очень
душно
1011.3 1009.9 9
21 15.05 штиль 0 16 км мгла 10/1 400 м
[St As op]
+28.4 +25.2 83 +41 +43 опасность
перегрева
1008.1 1006.7
00 16.05 штиль 0 16 км мгла 9/1 750 м
[Sc diur, vesp As trans]
+27.4 +25.5 89 +40 +40 очень
душно
1010.0 1008.6 +30.8
03 16.05 штиль 0 15 км мгла 8/1 900 м
[Sc diur, vesp As trans]
+25.4 +24.6 95 +36 +36 очень
душно
1011.3 1009.9
12 16.05 штиль 0 1000 м дымка 6/3 300 м
[Sc diur, vesp As trans]
+24.4 +23.9 97 +33 +35 очень
душно
1011.3 1009.9 +23.6 9
15 16.05 штиль 0 15 км мгла 9/9 540 м
[Sc diur, vesp]
+29.6 +25.3 78 +43 +45 опасность
перегрева
1012.4 1011.0
18 16.05 СЗ 4 16 км мгла 9/9 600 м
[Sc diur, vesp]
+32.6 +24.5 62 +45 +46 опасность
перегрева
1010.1 1008.7
21 16.05 штиль 0 16 км мгла 5/4 600 м
[Cu Sc Ci fib]
+34.4 +23.9 54 +46 +51 опасность
перегрева
1006.7 1005.3
00 17.05 СЗ 3 16 км мгла 4/1 540 м
[Sc diur, vesp Ci fib]
+29.4 +25.4 79 +43 +43 опасность
перегрева
1008.4 1007.0 +35.0
03 17.05 штиль 0 15 км мгла 8/1 600 м
[Sc diur, vesp Ac As]
+27.6 +26.5 94 +42 +42 опасность
перегрева
1010.7 1009.3
12 17.05 штиль 0 16 км в посл. час морось 10/9 450 м
[Frnb As op]
+24.4 +23.9 97 +33 +33 очень
душно
1010.4 1009.0 +22.8 50
15 17.05 штиль 0 16 км мгла 10/8 500 м
[Frnb As op]
+28.0 +25.9 88 +42 +43 опасность
перегрева
1011.8 1010.4
18 17.05 штиль 0 16 км осадки на расстоянии 10/8 500 м
[Sc diur, vesp As trans]
+30.8 +25.2 72 +45 +47 опасность
перегрева
1009.7 1008.3
21 17.05 штиль 0 16 км мгла 10/4 600 м
[Sc diur, vesp As trans]
+29.6 +25.6 79 +44 +46 опасность
перегрева
1007.0 1005.6
00 18.05 штиль 0 15 км мгла 5/3 600 м
[Sc diur, vesp As trans]
+28.2 +24.4 80 +40 +40 очень
душно
1007.9 1006.5 +31.2
03 18.05 штиль 0 15 км мгла 3/1 600 м
[Sc diur, vesp As trans]
+26.2 +24.8 92 +37 +37 очень
душно
1010.1 1009.9
12 18.05 штиль 0 15 км мгла 10/6 540 м
[St As trans]
+25.6 +24.8 95 +36 +37 очень
душно
1009.8 1008.4 +24.2
15 18.05 штиль 0 16 км мгла 8/3 600 м
[Sc diur, vesp As trans]
+29.3 +24.8 77 +42 +51 опасность
перегрева
1010.5 1009.1
18 18.05 С 3 16 км мгла 10/4 600 м
[Sc diur, vesp As trans]
+30.6 +25.3 73 +44 +48 опасность
перегрева
1009.0 1007.6
21 18.05 СЗ 6 16 км мгла 10/4 600 м
[Sc diur, vesp As trans]
+31.6 +24.9 68 +45 +46 опасность
перегрева
1007.0 1005.6
00 19.05 штиль 0 16 км мгла 9/1 660 м
[Sc diur, vesp As trans]
+28.0 +24.7 82 +40 +40 очень
душно
1008.3 1006.9 +32.2
03 19.05 штиль 0 16 км мгла 9/1 600 м
[Sc diur, vesp As trans]
+26.6 +25.5 94 +39 +39 очень
душно
1010.5 1009.1
12 19.05 штиль 0 16 км мгла 5/1 600 м
[Sc diur, vesp Cs]
+25.6 +24.3 93 +36 +38 очень
душно
1010.1 1008.7 +23.4
15 19.05 штиль 0 16 км мгла 9/1 240 м
[St Cs]
+30.0 +23.5 68 +41 +57 опасность
перегрева
1011.5 1010.1
18 19.05 штиль 0 16 км мгла 9/6 500 м
[Cu Sc As trans]
+32.9 +23.2 57 +43 +49 опасность
перегрева
1010.0 1008.6
21 19.05 штиль 0 16 км мгла 9/4 500 м
[Sc diur, vesp As trans]
+30.5 +23.9 68 +42 +44 опасность
перегрева
1007.5 1006.1
00 20.05 штиль 0 15 км мгла 9/6 540 м
[Sc diur, vesp Ac cuf]
+28.4 +24.0 77 +39 +39 очень
душно
1009.3 1007.9 +34.2
03 20.05 штиль 0 15 км мгла 10/5 540 м
[St As trans]
+27.4 +23 +23 комфорт 1010.9 1009.5
12 20.05 штиль 0 15 км мгла 6/4 600 м
[Sc diur, vesp As trans]
+25.8 +25.0 95 +37 +38 очень
душно
1010.9 1009.5 +24.2
15 20.05 штиль 0 15 км мгла 9/6 540 м
[Sc diur, vesp As trans]
+29.2 +24.3 75 +41 +46 опасность
перегрева
1011.8 1010.4
18 20.05 СВ 3 16 км гроза без осадков 10/1 450 м
[Cb cap As trans]
+28.4 +23.7 76 +39 +45 очень
душно
1009.7 1008.3 0.1
21 20.05 СЗ 3 16 км мгла 10/1 450 м
[Sc diur, vesp As op]
+26.4 +25.6 95 +39 +40 очень
душно
1008.0 1006.6
00 21.05 штиль 0 16 км мгла 10/1 540 м
[Cb calv As op]
+26.2 +25.4 95 +38 +38 очень
душно
1008.8 1007.4 +31.8 2
03 21.05 штиль 0 15 км мгла 10/1 600 м
[Sc diur, vesp As op]
+25.6 +24.8 95 +36 +36 очень
душно
1010.8 1009.4
12 21.05 штиль 0 16 км мгла 9/1 450 м
[St Ac As]
+25.2 +24.6 96 +35 +36 очень
душно
1010.5 1009.1 +23.6 2
15 21.05 штиль 0 16 км мгла 10/5 540 м
[Sc diur, vesp Ac trans]
+28.6 +25.4 83 +42 +46 опасность
перегрева
1011.1 1009.7
18 21.05 штиль 0 16 км мгла 10/8 500 м
[Sc diur, vesp As trans]
+31.0 +25.1 71 +45 +47 опасность
перегрева
1009.5 1008.1
21 21.05 С 2 16 км мгла 6/5 540 м
[Sc diur, vesp As trans]
+32.0 +24.7 65 +45 +48 опасность
перегрева
1007.0 1005.6
00 22.05 штиль 0 15 км мгла 8/3 600 м
[Sc diur, vesp As trans]
+27.8 +24.8 84 +40 +40 очень
душно
1008.0 1006.6 +32.4
03 22.05 штиль 0 15 км мгла 6/3 600 м
[Sc diur, vesp As trans]
+26.0 +24.1 89 +36 +36 очень
душно
1010.5 1009.1

 

Местоположение метеостанции Монтерия (Колумбия): широта 8.82 долгота -75.85 высота над уровнем моря 26 м.

В архиве по умолчанию представлена погода в Монтерии за последнюю неделю. Архивные данные за месяц целиком и за предыдущие месяцы, начиная с января 2011 года, Вы можете получить, выбрав интересующий диапазон дат из раскрывающегося списка и нажав кнопку "Ввод!".


*Определитесь, кто Вы:
робот инопланетянин человек

Внимание! Время в таблицах - всемирное. Для получения местного времени необходимо прибавить поправку, которая равна -5 ч.

Смотрите также архив погоды в соседних городах и на ближайших метеорологических станциях:

Погода в Апартадо (Колумбия) (145 км)
Погода в Картахене (Колумбия) (185 км)
Погода в Барранкилье (Колумбия) (257 км)
Погода в Медельине (Колумбия) (290 км)
Погода в Барранкабермехе (Колумбия) (302 км)
Погода в Рионегро (Колумбия) (303 км)
Погода в Санта-Марте (Колумбия) (312 км)
Погода в Вальедупаре (Колумбия) (337 км)
Погода в Букараманге (Колумбия) (349 км)
Погода в Кибдо (Колумбия) (355 км)

Пояснения к столбцам:

Ветер - указаны скорость ветра в м/с - средняя за 10 мин, порывы в срок и между сроками (в фигурных скобках) и направление, откуда дует ветер: С - северный, СВ - северо-восточный, В - восточный, ЮВ - юго-восточный, Ю - южный, ЮЗ - юго-западный, З - западный, СЗ - северо-западный.
Видимость - горизонтальная дальность видимости в метрах или километрах. При видимости от 1 до 10 км при отсутствии осадков обычно наблюдается дымка, при ухудшении видимости до 1 км и менее - туман. В сухую погоду видимость может ухудшаться дымом, пылью или мглою.
Явления - указаны атмосферные явления, наблюдавшиеся в срок или в последний час перед сроком; фигурными скобками обозначены явления, наблюдавшиеся между сроками (за 1-3 часа до срока); квадратными скобками обозначены град или гололедные отложения с указанием их диаметра в мм.
Облачность - указаны через наклонную черту общая и нижняя облачность в баллах и высота нижней границы облаков в метрах; квадратными скобками обозначены формы облаков: Ci - перистые, Cs - перисто-слоистые, Cc - перисто-кучевые, Ac - высококучевые, As - высокослоистые, Sc - слоисто-кучевые, Ns - слоисто-дождевые, Cu - кучевые, Cb - кучево-дождевые. Подробнее классификацию облаков см. в Атласе облаков (PDF).
T - Температура воздуха - температура, измеренная на высоте 2 м над землей.
Td - Температура точки росы - температура, при понижении до которой содержащийся в воздухе водяной пар достигнет насыщения.
f - Относительная влажность воздуха - влажноcть воздуха, измеренная на высоте 2 м над землей.
Te - Эффективная температура - температура, которую ощущает одетый по сезону человек в тени. Характеристика душности погоды. При расчете учитывается влияние влажности воздуха и скорости ветра на теплоощущения человека.
Tes - Эффективная температура на солнце - температура, которую ощущает человек, с поправкой на солнечный нагрев. Характеристика знойности погоды. Зависит от высоты солнца над горизонтом, облачности и скорости ветра. Ночью, в пасмурную погоду, а также при ветре 12 м/с и более поправка равна нулю.
P - Атмосферное давление - приведенное к уровню моря атмосферное давление.
Po - Атмосферное давление - измеренное на уровне метеостанции атмосферное давление.
Tmin - Минимальная температура - минимум температуры воздуха на высоте 2 м над землей.
Tmax - Максимальная температура - максимум температуры воздуха на высоте 2 м над землей.
R - Количество осадков - Количество выпавших осадков за период времени, мм. При наведении курсора мыши на число - период времени, за который выпало указанное количество осадков.
R24 - Количество осадков - Количество выпавших осадков за 24 часа, мм.
S - Снежный покров - Высота снежного покрова, см. При наведении курсора мыши на число - состояние снежного покрова и степень покрытия местности в баллах.